User: anonymous   Login
Location: Mladá Boleslav
(50.4134°N, 14.9084°E)
Time: 23:46:00
(UTC+02:00)
Language:

KKS-1 - Orbit

View from above orbital plane
View from above orbital plane
View from above satellite
View from above satellite

Ground track
Ground track

The orbit data is extracted from the following two-line orbital elements,

1 33499U 09002H   24147.90235225  .00002136  00000-0  29843-3 0  9996
2 33499  98.1409  49.2951 0008143 189.4217 170.6842 14.78701190824975
Epoch (UTC): 26 May 2024 21:39:23
Eccentricity: 0.0008143
inclination: 98.1409°
perigee height: 628 km
apogee height: 639 km
right ascension of ascending node: 49.2951°
argument of perigee: 189.4217°
revolutions per day: 14.78701190
mean anomaly at epoch: 170.6842°
orbit number at epoch: 82497

The dashed part of the orbit path shows where the satellite is in the earth's shadow,  

DLR